Location: Ostrava
(49.8330°N, 18.2830°E)
Time: 05:38:34
(UTC+02:00)

ISS - Pass Details

Date: 25 May 2021
Orbit: 417 x 422 km, 51.6° (Epoch: 13 June)

Event Time Altitude Azimuth Distance (km) Brightness Sun altitude
Rises 23:49:33 0° 285° (WNW) 2,369 0.5 -18.0°
Reaches altitude 10° 23:51:56 10° 270° (W) 1,502 -0.8 -18.1°
Enters shadow 23:53:36 19° 244° (WSW) 1,063 -1.9 -18.2°
